Time,TemperatureF,DewpointF,PressureIn,WindDirection,WindDirectionDegrees,WindSpeedMPH,WindSpeedGustMPH,Humidity,HourlyPrecipIn,Conditions,Clouds,dailyrainin,SoftwareType,DateUTC
2013-01-11 00:05:00,46.1,42.7,30.35,WNW,298,0.0,0.0,88,0.00,,,0.00,Wunderground v.1.15,2013-01-11 05:05:00,
2013-01-11 00:10:00,45.9,42.8,30.35,WNW,298,0.0,1.0,89,0.00,,,0.00,Wunderground v.1.15,2013-01-11 05:10:00,
2013-01-11 00:15:00,45.6,42.5,30.35,WNW,298,0.0,1.0,89,0.00,,,0.00,Wunderground v.1.15,2013-01-11 05:15:00,
2013-01-11 00:25:00,45.4,42.3,30.34,WNW,298,0.0,0.0,89,0.00,,,0.00,Wunderground v.1.15,2013-01-11 05:25:00,
2013-01-11 00:30:00,45.2,42.2,30.34,WNW,298,0.0,0.0,89,0.00,,,0.00,Wunderground v.1.15,2013-01-11 05:30:00,
2013-01-11 00:35:00,44.9,42.1,30.34,WNW,298,0.0,0.0,90,0.00,,,0.00,Wunderground v.1.15,2013-01-11 05:35:00,
2013-01-11 00:40:00,44.7,41.9,30.34,WNW,298,0.0,0.0,90,0.00,,,0.00,Wunderground v.1.15,2013-01-11 05:40:00,
2013-01-11 00:45:00,44.8,42.0,30.34,WNW,298,0.0,0.0,90,0.00,,,0.00,Wunderground v.1.15,2013-01-11 05:45:00,
2013-01-11 00:55:00,44.6,41.8,30.34,WNW,298,0.0,0.0,90,0.00,,,0.00,Wunderground v.1.15,2013-01-11 05:55:00,
2013-01-11 01:00:00,44.7,42.2,30.33,WNW,298,0.0,0.0,91,0.00,,,0.00,Wunderground v.1.15,2013-01-11 06:00:00,
2013-01-11 01:10:00,44.8,42.0,30.33,West,263,0.0,0.0,90,0.00,,,0.00,Wunderground v.1.15,2013-01-11 06:10:00,
2013-01-11 01:20:00,45.3,42.5,30.32,West,263,0.0,1.0,90,0.00,,,0.00,Wunderground v.1.15,2013-01-11 06:20:00,
2013-01-11 01:25:00,45.6,42.5,30.32,West,263,0.0,1.0,89,0.00,,,0.00,Wunderground v.1.15,2013-01-11 06:25:00,
2013-01-11 01:30:00,45.7,42.6,30.32,West,263,0.0,2.0,89,0.00,,,0.00,Wunderground v.1.15,2013-01-11 06:30:00,
2013-01-11 01:35:00,46.2,43.1,30.33,West,263,1.0,2.0,89,0.00,,,0.00,Wunderground v.1.15,2013-01-11 06:35:00,
2013-01-11 01:40:00,46.3,42.9,30.33,West,263,0.0,0.0,88,0.00,,,0.00,Wunderground v.1.15,2013-01-11 06:40:00,
2013-01-11 01:45:00,46.3,43.2,30.33,West,263,0.0,0.0,89,0.00,,,0.00,Wunderground v.1.15,2013-01-11 06:45:00,
2013-01-11 01:55:00,46.2,42.8,30.32,West,264,0.0,0.0,88,0.00,,,0.00,Wunderground v.1.15,2013-01-11 06:55:00,
2013-01-11 02:00:00,46.3,42.9,30.32,SSW,212,0.0,2.0,88,0.00,,,0.00,Wunderground v.1.15,2013-01-11 07:00:00,
2013-01-11 02:10:00,46.8,42.2,30.31,NNE,17,2.0,4.0,84,0.00,,,0.00,Wunderground v.1.15,2013-01-11 07:10:00,
2013-01-11 02:15:00,47.3,42.4,30.31,SSE,163,2.0,4.0,83,0.00,,,0.00,Wunderground v.1.15,2013-01-11 07:15:00,
2013-01-11 02:25:00,47.9,41.7,30.31,ENE,57,1.0,2.0,79,0.00,,,0.00,Wunderground v.1.15,2013-01-11 07:25:00,
2013-01-11 02:30:00,48.3,42.1,30.31,NW,307,1.0,1.0,79,0.00,,,0.00,Wunderground v.1.15,2013-01-11 07:30:00,
2013-01-11 02:40:00,48.6,42.4,30.32,WNW,292,0.0,0.0,79,0.00,,,0.00,Wunderground v.1.15,2013-01-11 07:40:00,
2013-01-11 02:45:00,48.4,42.5,30.31,WNW,292,0.0,0.0,80,0.00,,,0.00,Wunderground v.1.15,2013-01-11 07:45:00,
2013-01-11 02:55:00,47.9,42.7,30.31,WNW,292,0.0,2.0,82,0.00,,,0.00,Wunderground v.1.15,2013-01-11 07:55:00,
2013-01-11 03:00:00,47.5,42.3,30.31,WNW,292,0.0,0.0,82,0.00,,,0.00,Wunderground v.1.15,2013-01-11 08:00:00,
2013-01-11 03:10:00,47.3,42.4,30.32,WNW,292,0.0,0.0,83,0.00,,,0.00,Wunderground v.1.15,2013-01-11 08:10:00,
2013-01-11 03:20:00,47.3,42.7,30.32,WNW,292,0.0,0.0,84,0.00,,,0.00,Wunderground v.1.15,2013-01-11 08:20:00,
2013-01-11 03:25:00,47.1,42.8,30.32,WNW,292,0.0,0.0,85,0.00,,,0.00,Wunderground v.1.15,2013-01-11 08:25:00,
2013-01-11 03:30:00,47.2,42.9,30.31,WNW,292,0.0,0.0,85,0.00,,,0.00,Wunderground v.1.15,2013-01-11 08:30:00,
2013-01-11 03:40:00,46.9,42.6,30.30,WNW,292,0.0,0.0,85,0.00,,,0.00,Wunderground v.1.15,2013-01-11 08:40:00,
2013-01-11 03:45:00,46.9,42.9,30.29,WNW,292,0.0,0.0,86,0.00,,,0.00,Wunderground v.1.15,2013-01-11 08:45:00,
2013-01-11 03:55:00,46.7,42.7,30.29,WNW,292,0.0,0.0,86,0.00,,,0.00,Wunderground v.1.15,2013-01-11 08:55:00,
2013-01-11 04:00:00,46.7,42.7,30.29,WNW,292,0.0,0.0,86,0.00,,,0.00,Wunderground v.1.15,2013-01-11 09:00:00,
2013-01-11 04:10:00,47.2,42.9,30.30,WSW,245,0.0,1.0,85,0.00,,,0.00,Wunderground v.1.15,2013-01-11 09:10:00,
2013-01-11 04:15:00,47.5,43.2,30.29,WSW,245,0.0,1.0,85,0.00,,,0.00,Wunderground v.1.15,2013-01-11 09:15:00,
2013-01-11 04:20:00,47.7,43.4,30.28,WSW,245,0.0,0.0,85,0.00,,,0.00,Wunderground v.1.15,2013-01-11 09:20:00,
2013-01-11 04:25:00,47.8,43.5,30.29,WSW,245,0.0,0.0,85,0.00,,,0.00,Wunderground v.1.15,2013-01-11 09:25:00,
2013-01-11 04:30:00,47.8,43.5,30.28,ESE,104,0.0,0.0,85,0.00,,,0.00,Wunderground v.1.15,2013-01-11 09:30:00,
2013-01-11 04:40:00,47.7,43.7,30.28,ESE,105,0.0,2.0,86,0.00,,,0.00,Wunderground v.1.15,2013-01-11 09:40:00,
2013-01-11 04:45:00,47.7,43.7,30.27,ESE,118,0.0,2.0,86,0.00,,,0.00,Wunderground v.1.15,2013-01-11 09:45:00,
2013-01-11 04:50:00,47.9,43.9,30.26,ESE,121,0.0,1.0,86,0.00,,,0.00,Wunderground v.1.15,2013-01-11 09:50:00,
2013-01-11 04:55:00,48.1,44.1,30.26,ESE,121,0.0,1.0,86,0.00,,,0.00,Wunderground v.1.15,2013-01-11 09:55:00,
2013-01-11 05:00:00,48.2,44.2,30.26,SE,130,0.0,0.0,86,0.00,,,0.00,Wunderground v.1.15,2013-01-11 10:00:00,
2013-01-11 05:10:00,49.0,45.0,30.25,SSE,153,1.0,1.0,86,0.00,,,0.00,Wunderground v.1.15,2013-01-11 10:10:00,
2013-01-11 05:15:00,49.1,45.1,30.24,SSE,153,0.0,1.0,86,0.00,,,0.00,Wunderground v.1.15,2013-01-11 10:15:00,
2013-01-11 05:25:00,49.3,45.6,30.25,SSE,153,0.0,0.0,87,0.00,,,0.00,Wunderground v.1.15,2013-01-11 10:25:00,
2013-01-11 05:30:00,49.4,45.7,30.25,SSE,153,0.0,0.0,87,0.00,,,0.00,Wunderground v.1.15,2013-01-11 10:30:00,
2013-01-11 05:40:00,50.0,46.3,30.24,SSE,153,0.0,0.0,87,0.00,,,0.00,Wunderground v.1.15,2013-01-11 10:40:00,
2013-01-11 05:45:00,50.4,46.7,30.24,South,190,0.0,0.0,87,0.00,,,0.00,Wunderground v.1.15,2013-01-11 10:45:00,
2013-01-11 05:50:00,51.2,47.5,30.25,SSE,157,2.0,2.0,87,0.00,,,0.00,Wunderground v.1.15,2013-01-11 10:50:00,
2013-01-11 05:55:00,51.8,47.7,30.24,SSW,201,3.0,3.0,86,0.00,,,0.00,Wunderground v.1.15,2013-01-11 10:55:00,
2013-01-11 06:00:00,51.8,47.7,30.24,SSW,201,1.0,1.0,86,0.00,,,0.00,Wunderground v.1.15,2013-01-11 11:00:00,
2013-01-11 06:10:00,51.7,47.6,30.24,SE,134,3.0,3.0,86,0.00,,,0.00,Wunderground v.1.15,2013-01-11 11:10:00,
2013-01-11 06:15:00,52.1,48.0,30.24,ESE,111,4.0,8.0,86,0.00,,,0.00,Wunderground v.1.15,2013-01-11 11:15:00,
2013-01-11 06:25:00,52.3,47.9,30.23,SE,146,3.0,4.0,85,0.00,,,0.00,Wunderground v.1.15,2013-01-11 11:25:00,
2013-01-11 06:30:00,52.0,47.9,30.23,SSW,202,1.0,2.0,86,0.00,,,0.00,Wunderground v.1.15,2013-01-11 11:30:00,
2013-01-11 06:35:00,51.9,47.8,30.23,SSW,207,1.0,2.0,86,0.00,,,0.00,Wunderground v.1.15,2013-01-11 11:35:00,
2013-01-11 06:40:00,51.9,47.8,30.24,South,176,1.0,1.0,86,0.00,,,0.00,Wunderground v.1.15,2013-01-11 11:40:00,
2013-01-11 06:45:00,51.9,47.8,30.24,SSW,194,2.0,5.0,86,0.00,,,0.00,Wunderground v.1.15,2013-01-11 11:45:00,
2013-01-11 06:55:00,52.2,48.1,30.24,SE,126,2.0,4.0,86,0.00,,,0.00,Wunderground v.1.15,2013-01-11 11:55:00,
2013-01-11 07:00:00,52.4,48.0,30.24,SE,143,3.0,3.0,85,0.00,,,0.00,Wunderground v.1.15,2013-01-11 12:00:00,
2013-01-11 07:10:00,52.7,48.3,30.24,South,179,3.0,3.0,85,0.00,,,0.00,Wunderground v.1.15,2013-01-11 12:10:00,
2013-01-11 07:15:00,52.7,48.3,30.25,SE,133,2.0,12.0,85,0.00,,,0.00,Wunderground v.1.15,2013-01-11 12:15:00,
2013-01-11 07:20:00,53.0,48.6,30.25,SSW,200,3.0,3.0,85,0.00,,,0.00,Wunderground v.1.15,2013-01-11 12:20:00,
2013-01-11 07:25:00,53.1,48.4,30.24,SSE,162,4.0,5.0,84,0.00,,,0.00,Wunderground v.1.15,2013-01-11 12:25:00,
2013-01-11 07:30:00,53.2,48.5,30.24,ESE,110,4.0,4.0,84,0.00,,,0.00,Wunderground v.1.15,2013-01-11 12:30:00,
2013-01-11 07:40:00,53.4,49.0,30.24,South,172,3.0,3.0,85,0.00,,,0.00,Wunderground v.1.15,2013-01-11 12:40:00,
2013-01-11 07:45:00,53.2,48.8,30.24,South,171,3.0,5.0,85,0.00,,,0.00,Wunderground v.1.15,2013-01-11 12:45:00,
2013-01-11 07:55:00,53.2,48.8,30.24,ENE,67,3.0,4.0,85,0.00,,,0.00,Wunderground v.1.15,2013-01-11 12:55:00,
2013-01-11 08:05:00,52.7,48.6,30.24,SSW,200,1.0,3.0,86,0.00,,,0.00,Wunderground v.1.15,2013-01-11 13:05:00,
2013-01-11 08:10:00,52.4,48.3,30.24,SSW,200,0.0,0.0,86,0.00,,,0.00,Wunderground v.1.15,2013-01-11 13:10:00,
2013-01-11 08:15:00,52.2,48.4,30.24,South,188,1.0,3.0,87,0.00,,,0.00,Wunderground v.1.15,2013-01-11 13:15:00,
2013-01-11 08:25:00,52.2,48.4,30.25,SSE,154,2.0,5.0,87,0.00,,,0.00,Wunderground v.1.15,2013-01-11 13:25:00,
2013-01-11 08:30:00,52.3,48.5,30.24,ESE,106,3.0,3.0,87,0.00,,,0.01,Wunderground v.1.15,2013-01-11 13:30:00,
2013-01-11 08:40:00,51.9,48.5,30.24,ESE,113,1.0,2.0,88,0.00,,,0.01,Wunderground v.1.15,2013-01-11 13:40:00,
2013-01-11 08:45:00,51.6,48.5,30.24,ESE,122,1.0,2.0,89,0.00,,,0.01,Wunderground v.1.15,2013-01-11 13:45:00,
2013-01-11 08:55:00,51.3,48.5,30.25,East,94,2.0,5.0,90,0.00,,,0.01,Wunderground v.1.15,2013-01-11 13:55:00,
2013-01-11 09:00:00,51.1,48.3,30.24,East,94,1.0,1.0,90,0.00,,,0.01,Wunderground v.1.15,2013-01-11 14:00:00,
2013-01-11 09:05:00,50.9,48.1,30.24,East,94,0.0,1.0,90,0.00,,,0.01,Wunderground v.1.15,2013-01-11 14:05:00,
2013-01-11 09:10:00,50.8,48.3,30.25,East,94,0.0,0.0,91,0.00,,,0.02,Wunderground v.1.15,2013-01-11 14:10:00,
2013-01-11 09:15:00,50.8,48.3,30.25,East,94,0.0,0.0,91,0.00,,,0.02,Wunderground v.1.15,2013-01-11 14:15:00,
2013-01-11 09:25:00,50.6,48.4,30.24,East,94,0.0,0.0,92,0.00,,,0.02,Wunderground v.1.15,2013-01-11 14:25:00,
2013-01-11 09:30:00,50.5,48.3,30.24,East,94,0.0,0.0,92,0.00,,,0.02,Wunderground v.1.15,2013-01-11 14:30:00,
2013-01-11 09:40:00,50.3,48.1,30.24,East,94,0.0,0.0,92,0.00,,,0.02,Wunderground v.1.15,2013-01-11 14:40:00,
2013-01-11 09:45:00,50.4,48.2,30.23,East,94,0.0,0.0,92,0.00,,,0.03,Wunderground v.1.15,2013-01-11 14:45:00,
2013-01-11 09:55:00,50.4,48.5,30.23,East,94,0.0,0.0,93,0.00,,,0.03,Wunderground v.1.15,2013-01-11 14:55:00,
2013-01-11 10:00:00,50.4,48.5,30.23,East,94,0.0,0.0,93,0.00,,,0.03,Wunderground v.1.15,2013-01-11 15:00:00,
2013-01-11 10:10:00,50.7,48.7,30.22,SSE,163,1.0,1.0,93,0.00,,,0.03,Wunderground v.1.15,2013-01-11 15:10:00,
2013-01-11 10:15:00,50.9,48.9,30.22,SSE,163,1.0,1.0,93,0.00,,,0.03,Wunderground v.1.15,2013-01-11 15:15:00,
2013-01-11 10:25:00,51.3,49.3,30.22,SSW,198,0.0,2.0,93,0.00,,,0.03,Wunderground v.1.15,2013-01-11 15:25:00,
2013-01-11 10:30:00,51.4,49.4,30.22,South,178,1.0,1.0,93,0.00,,,0.03,Wunderground v.1.15,2013-01-11 15:30:00,
2013-01-11 10:35:00,51.6,49.6,30.22,South,178,1.0,1.0,93,0.00,,,0.03,Wunderground v.1.15,2013-01-11 15:35:00,
2013-01-11 10:40:00,51.7,49.5,30.21,South,179,0.0,0.0,92,0.00,,,0.03,Wunderground v.1.15,2013-01-11 15:40:00,
2013-01-11 10:45:00,52.0,49.7,30.21,South,178,0.0,0.0,92,0.00,,,0.03,Wunderground v.1.15,2013-01-11 15:45:00,
2013-01-11 10:55:00,52.7,50.4,30.20,South,178,0.0,0.0,92,0.00,,,0.03,Wunderground v.1.15,2013-01-11 15:55:00,
2013-01-11 11:00:00,53.0,50.1,30.19,SSE,150,0.0,0.0,90,0.00,,,0.03,Wunderground v.1.15,2013-01-11 16:00:00,
2013-01-11 11:10:00,53.8,50.9,30.19,SE,146,0.0,0.0,90,0.00,,,0.03,Wunderground v.1.15,2013-01-11 16:10:00,
2013-01-11 11:15:00,54.1,51.2,30.19,SE,146,0.0,0.0,90,0.00,,,0.03,Wunderground v.1.15,2013-01-11 16:15:00,
2013-01-11 11:25:00,54.5,51.3,30.18,SE,146,0.0,0.0,89,0.00,,,0.03,Wunderground v.1.15,2013-01-11 16:25:00,
2013-01-11 11:30:00,54.7,51.2,30.18,SE,146,0.0,0.0,88,0.00,,,0.03,Wunderground v.1.15,2013-01-11 16:30:00,
2013-01-11 11:35:00,54.9,51.1,30.17,SE,146,0.0,0.0,87,0.00,,,0.03,Wunderground v.1.15,2013-01-11 16:35:00,
2013-01-11 11:40:00,55.1,51.3,30.17,SE,146,0.0,0.0,87,0.00,,,0.03,Wunderground v.1.15,2013-01-11 16:40:00,
2013-01-11 11:45:00,55.4,51.6,30.16,SE,146,0.0,0.0,87,0.00,,,0.03,Wunderground v.1.15,2013-01-11 16:45:00,
2013-01-11 11:55:00,55.8,51.4,30.16,SE,146,0.0,0.0,85,0.00,,,0.03,Wunderground v.1.15,2013-01-11 16:55:00,
2013-01-11 12:00:00,55.8,51.4,30.15,SE,146,0.0,0.0,85,0.00,,,0.03,Wunderground v.1.15,2013-01-11 17:00:00,
2013-01-11 12:10:00,55.8,51.4,30.16,SE,146,0.0,0.0,85,0.00,,,0.03,Wunderground v.1.15,2013-01-11 17:10:00,
2013-01-11 12:15:00,55.8,51.7,30.16,SE,146,0.0,0.0,86,0.00,,,0.04,Wunderground v.1.15,2013-01-11 17:15:00,
2013-01-11 12:20:00,55.8,52.3,30.15,SE,146,0.0,0.0,88,0.00,,,0.04,Wunderground v.1.15,2013-01-11 17:20:00,
2013-01-11 12:25:00,55.8,52.3,30.15,SE,146,0.0,0.0,88,0.00,,,0.04,Wunderground v.1.15,2013-01-11 17:25:00,
2013-01-11 12:30:00,55.7,52.5,30.15,SE,146,0.0,0.0,89,0.00,,,0.04,Wunderground v.1.15,2013-01-11 17:30:00,
2013-01-11 12:40:00,55.1,52.2,30.15,SE,146,0.0,0.0,90,0.00,,,0.05,Wunderground v.1.15,2013-01-11 17:40:00,
2013-01-11 12:45:00,54.7,52.1,30.14,SE,146,0.0,0.0,91,0.00,,,0.05,Wunderground v.1.15,2013-01-11 17:45:00,
2013-01-11 12:55:00,53.9,51.3,30.14,East,89,1.0,1.0,91,0.00,,,0.05,Wunderground v.1.15,2013-01-11 17:55:00,
2013-01-11 13:05:00,53.7,51.4,30.14,East,89,0.0,2.0,92,0.00,,,0.05,Wunderground v.1.15,2013-01-11 18:05:00,
2013-01-11 13:10:00,53.6,51.3,30.14,East,89,1.0,1.0,92,0.00,,,0.06,Wunderground v.1.15,2013-01-11 18:10:00,
2013-01-11 13:15:00,53.7,51.4,30.13,East,89,1.0,1.0,92,0.00,,,0.06,Wunderground v.1.15,2013-01-11 18:15:00,
2013-01-11 13:25:00,54.2,51.9,30.13,East,89,0.0,1.0,92,0.00,,,0.06,Wunderground v.1.15,2013-01-11 18:25:00,
2013-01-11 13:30:00,54.3,52.0,30.13,East,89,1.0,1.0,92,0.00,,,0.06,Wunderground v.1.15,2013-01-11 18:30:00,
2013-01-11 13:40:00,54.5,52.2,30.13,East,89,0.0,0.0,92,0.00,,,0.06,Wunderground v.1.15,2013-01-11 18:40:00,
2013-01-11 13:45:00,54.4,52.1,30.13,East,89,0.0,0.0,92,0.00,,,0.06,Wunderground v.1.15,2013-01-11 18:45:00,
2013-01-11 13:50:00,54.5,52.2,30.13,East,89,0.0,0.0,92,0.00,,,0.06,Wunderground v.1.15,2013-01-11 18:50:00,
2013-01-11 13:55:00,54.6,52.3,30.13,East,89,0.0,0.0,92,0.00,,,0.06,Wunderground v.1.15,2013-01-11 18:55:00,
2013-01-11 14:00:00,54.8,52.8,30.13,East,89,0.0,0.0,93,0.00,,,0.06,Wunderground v.1.15,2013-01-11 19:00:00,
2013-01-11 14:10:00,54.9,52.9,30.13,East,89,0.0,0.0,93,0.00,,,0.07,Wunderground v.1.15,2013-01-11 19:10:00,
2013-01-11 14:15:00,54.9,52.9,30.13,East,89,0.0,0.0,93,0.00,,,0.07,Wunderground v.1.15,2013-01-11 19:15:00,
2013-01-11 14:25:00,54.7,52.7,30.13,East,89,0.0,0.0,93,0.05,,,0.08,Wunderground v.1.15,2013-01-11 19:25:00,
2013-01-11 14:30:00,54.6,52.6,30.13,East,89,0.0,0.0,93,0.05,,,0.08,Wunderground v.1.15,2013-01-11 19:30:00,
2013-01-11 14:35:00,54.5,52.5,30.13,East,89,0.0,0.0,93,0.07,,,0.09,Wunderground v.1.15,2013-01-11 19:35:00,
2013-01-11 14:40:00,54.4,52.4,30.13,East,89,0.0,1.0,93,0.06,,,0.09,Wunderground v.1.15,2013-01-11 19:40:00,
2013-01-11 14:45:00,54.3,52.3,30.13,East,89,0.0,1.0,93,0.05,,,0.10,Wunderground v.1.15,2013-01-11 19:45:00,
2013-01-11 14:55:00,54.1,52.4,30.12,East,89,0.0,0.0,94,0.05,,,0.10,Wunderground v.1.15,2013-01-11 19:55:00,
2013-01-11 15:00:00,54.1,52.4,30.13,East,89,0.0,0.0,94,0.04,,,0.10,Wunderground v.1.15,2013-01-11 20:00:00,
2013-01-11 15:10:00,54.1,52.4,30.13,East,89,0.0,1.0,94,0.00,,,0.10,Wunderground v.1.15,2013-01-11 20:10:00,
2013-01-11 15:15:00,54.1,52.4,30.13,East,89,0.0,1.0,94,0.00,,,0.10,Wunderground v.1.15,2013-01-11 20:15:00,
2013-01-11 15:20:00,54.1,52.4,30.13,East,89,0.0,0.0,94,0.00,,,0.10,Wunderground v.1.15,2013-01-11 20:20:00,
2013-01-11 15:25:00,54.2,52.5,30.12,East,89,0.0,0.0,94,0.00,,,0.10,Wunderground v.1.15,2013-01-11 20:25:00,
2013-01-11 15:30:00,54.2,52.5,30.12,East,89,0.0,0.0,94,0.00,,,0.10,Wunderground v.1.15,2013-01-11 20:30:00,
2013-01-11 15:40:00,54.3,52.6,30.12,East,89,0.0,0.0,94,0.00,,,0.10,Wunderground v.1.15,2013-01-11 20:40:00,
2013-01-11 15:45:00,54.2,52.5,30.12,East,89,0.0,0.0,94,0.00,,,0.10,Wunderground v.1.15,2013-01-11 20:45:00,
2013-01-11 15:55:00,54.3,52.6,30.12,ENE,63,0.0,0.0,94,0.00,,,0.10,Wunderground v.1.15,2013-01-11 20:55:00,
2013-01-11 16:05:00,54.4,52.7,30.12,ENE,63,0.0,0.0,94,0.00,,,0.10,Wunderground v.1.15,2013-01-11 21:05:00,
2013-01-11 16:10:00,54.3,52.6,30.13,ENE,63,0.0,0.0,94,0.00,,,0.10,Wunderground v.1.15,2013-01-11 21:10:00,
2013-01-11 16:15:00,54.3,52.6,30.12,ENE,63,0.0,0.0,94,0.00,,,0.10,Wunderground v.1.15,2013-01-11 21:15:00,
2013-01-11 16:25:00,54.1,52.4,30.12,ENE,63,0.0,0.0,94,0.00,,,0.10,Wunderground v.1.15,2013-01-11 21:25:00,
2013-01-11 16:30:00,54.0,52.3,30.12,ENE,63,0.0,0.0,94,0.00,,,0.10,Wunderground v.1.15,2013-01-11 21:30:00,
2013-01-11 16:40:00,54.0,52.3,30.11,ENE,63,0.0,0.0,94,0.00,,,0.10,Wunderground v.1.15,2013-01-11 21:40:00,
2013-01-11 16:45:00,53.9,52.2,30.11,ENE,63,0.0,0.0,94,0.00,,,0.10,Wunderground v.1.15,2013-01-11 21:45:00,
2013-01-11 16:50:00,53.9,52.5,30.11,ENE,63,0.0,0.0,95,0.00,,,0.10,Wunderground v.1.15,2013-01-11 21:50:00,
2013-01-11 16:55:00,53.8,52.4,30.11,ENE,63,0.0,0.0,95,0.00,,,0.10,Wunderground v.1.15,2013-01-11 21:55:00,
2013-01-11 17:00:00,53.8,52.4,30.11,ENE,63,0.0,0.0,95,0.00,,,0.10,Wunderground v.1.15,2013-01-11 22:00:00,
2013-01-11 17:10:00,53.7,52.3,30.11,ENE,63,0.0,0.0,95,0.00,,,0.10,Wunderground v.1.15,2013-01-11 22:10:00,
2013-01-11 17:15:00,53.7,52.0,30.11,ENE,63,0.0,0.0,94,0.00,,,0.10,Wunderground v.1.15,2013-01-11 22:15:00,
2013-01-11 17:25:00,53.6,52.2,30.12,ENE,63,0.0,0.0,95,0.00,,,0.10,Wunderground v.1.15,2013-01-11 22:25:00,
2013-01-11 17:30:00,53.5,52.1,30.12,WNW,298,1.0,1.0,95,0.00,,,0.10,Wunderground v.1.15,2013-01-11 22:30:00,
2013-01-11 17:35:00,53.6,52.2,30.12,WNW,298,1.0,1.0,95,0.00,,,0.10,Wunderground v.1.15,2013-01-11 22:35:00,
2013-01-11 17:40:00,53.5,52.1,30.13,WNW,298,0.0,0.0,95,0.00,,,0.10,Wunderground v.1.15,2013-01-11 22:40:00,
2013-01-11 17:45:00,53.4,52.0,30.13,WNW,298,0.0,0.0,95,0.00,,,0.10,Wunderground v.1.15,2013-01-11 22:45:00,
2013-01-11 17:55:00,53.3,51.9,30.14,WNW,298,0.0,0.0,95,0.00,,,0.10,Wunderground v.1.15,2013-01-11 22:55:00,
2013-01-11 18:00:00,53.2,51.8,30.14,WNW,298,0.0,0.0,95,0.00,,,0.10,Wunderground v.1.15,2013-01-11 23:00:00,
2013-01-11 18:10:00,53.2,51.8,30.14,WNW,298,0.0,0.0,95,0.00,,,0.10,Wunderground v.1.15,2013-01-11 23:10:00,
2013-01-11 18:15:00,53.1,51.7,30.14,WNW,298,0.0,0.0,95,0.00,,,0.10,Wunderground v.1.15,2013-01-11 23:15:00,
2013-01-11 18:25:00,53.0,51.6,30.15,WNW,298,0.0,0.0,95,0.00,,,0.10,Wunderground v.1.15,2013-01-11 23:25:00,
2013-01-11 18:35:00,53.0,51.6,30.15,WNW,298,0.0,0.0,95,0.00,,,0.10,Wunderground v.1.15,2013-01-11 23:35:00,
2013-01-11 18:40:00,53.0,51.6,30.15,WNW,298,0.0,0.0,95,0.00,,,0.10,Wunderground v.1.15,2013-01-11 23:40:00,
2013-01-11 18:45:00,52.9,51.5,30.15,WNW,298,0.0,0.0,95,0.00,,,0.10,Wunderground v.1.15,2013-01-11 23:45:00,
2013-01-11 18:55:00,52.8,51.4,30.15,WNW,298,0.0,0.0,95,0.00,,,0.10,Wunderground v.1.15,2013-01-11 23:55:00,
2013-01-11 19:00:00,52.9,51.5,30.15,WNW,298,0.0,0.0,95,0.00,,,0.10,Wunderground v.1.15,2013-01-12 00:00:00,
2013-01-11 19:10:00,52.9,51.5,30.15,WNW,298,1.0,1.0,95,0.00,,,0.10,Wunderground v.1.15,2013-01-12 00:10:00,
2013-01-11 19:15:00,52.8,51.4,30.15,WNW,298,0.0,1.0,95,0.00,,,0.10,Wunderground v.1.15,2013-01-12 00:15:00,
2013-01-11 19:20:00,52.7,51.3,30.15,WNW,298,0.0,0.0,95,0.00,,,0.10,Wunderground v.1.15,2013-01-12 00:20:00,
2013-01-11 19:25:00,52.7,51.3,30.16,WNW,298,0.0,0.0,95,0.00,,,0.10,Wunderground v.1.15,2013-01-12 00:25:00,
2013-01-11 19:35:00,52.7,51.3,30.15,WNW,298,0.0,0.0,95,0.00,,,0.10,Wunderground v.1.15,2013-01-12 00:35:00,
2013-01-11 19:40:00,52.8,51.4,30.15,WNW,298,0.0,0.0,95,0.00,,,0.10,Wunderground v.1.15,2013-01-12 00:40:00,
2013-01-11 19:45:00,52.7,51.3,30.15,WNW,298,0.0,0.0,95,0.00,,,0.10,Wunderground v.1.15,2013-01-12 00:45:00,
2013-01-11 19:55:00,52.6,51.2,30.15,WNW,298,0.0,2.0,95,0.00,,,0.10,Wunderground v.1.15,2013-01-12 00:55:00,
2013-01-11 20:00:00,52.7,51.3,30.15,WNW,298,1.0,1.0,95,0.00,,,0.10,Wunderground v.1.15,2013-01-12 01:00:00,
2013-01-11 20:10:00,52.7,51.3,30.15,WNW,298,0.0,0.0,95,0.00,,,0.10,Wunderground v.1.15,2013-01-12 01:10:00,
2013-01-11 20:15:00,52.6,51.2,30.15,WNW,298,0.0,0.0,95,0.00,,,0.10,Wunderground v.1.15,2013-01-12 01:15:00,
2013-01-11 20:20:00,52.5,51.1,30.15,WNW,298,0.0,1.0,95,0.00,,,0.10,Wunderground v.1.15,2013-01-12 01:20:00,
2013-01-11 20:25:00,52.9,51.5,30.15,WNW,298,0.0,1.0,95,0.00,,,0.10,Wunderground v.1.15,2013-01-12 01:25:00,
2013-01-11 20:30:00,52.9,51.5,30.15,WNW,298,1.0,1.0,95,0.00,,,0.10,Wunderground v.1.15,2013-01-12 01:30:00,
2013-01-11 20:40:00,52.5,51.1,30.15,WNW,298,0.0,0.0,95,0.00,,,0.10,Wunderground v.1.15,2013-01-12 01:40:00,
2013-01-11 20:45:00,52.2,50.8,30.15,WNW,298,0.0,0.0,95,0.00,,,0.10,Wunderground v.1.15,2013-01-12 01:45:00,
2013-01-11 20:55:00,51.8,50.4,30.15,WNW,298,0.0,0.0,95,0.00,,,0.10,Wunderground v.1.15,2013-01-12 01:55:00,
2013-01-11 21:00:00,51.5,50.1,30.15,WNW,298,0.0,0.0,95,0.00,,,0.10,Wunderground v.1.15,2013-01-12 02:00:00,
2013-01-11 21:10:00,50.8,49.4,30.15,WNW,298,0.0,0.0,95,0.00,,,0.10,Wunderground v.1.15,2013-01-12 02:10:00,
2013-01-11 21:15:00,50.6,49.2,30.15,WNW,298,0.0,0.0,95,0.00,,,0.10,Wunderground v.1.15,2013-01-12 02:15:00,
2013-01-11 21:20:00,50.4,49.0,30.15,WNW,298,0.0,0.0,95,0.00,,,0.10,Wunderground v.1.15,2013-01-12 02:20:00,
2013-01-11 21:25:00,50.4,49.0,30.15,WNW,298,0.0,0.0,95,0.00,,,0.10,Wunderground v.1.15,2013-01-12 02:25:00,
2013-01-11 21:35:00,50.4,49.0,30.15,WNW,298,0.0,0.0,95,0.00,,,0.10,Wunderground v.1.15,2013-01-12 02:35:00,
2013-01-11 21:40:00,50.4,49.0,30.15,WNW,298,0.0,0.0,95,0.00,,,0.10,Wunderground v.1.15,2013-01-12 02:40:00,
2013-01-11 21:45:00,50.4,49.0,30.15,WNW,298,0.0,0.0,95,0.00,,,0.10,Wunderground v.1.15,2013-01-12 02:45:00,
2013-01-11 21:55:00,51.0,49.9,30.15,WNW,298,0.0,2.0,96,0.00,,,0.10,Wunderground v.1.15,2013-01-12 02:55:00,
2013-01-11 22:00:00,51.4,50.3,30.15,WNW,298,0.0,0.0,96,0.00,,,0.10,Wunderground v.1.15,2013-01-12 03:00:00,
2013-01-11 22:05:00,51.0,49.9,30.15,WNW,298,0.0,0.0,96,0.00,,,0.10,Wunderground v.1.15,2013-01-12 03:05:00,
2013-01-11 22:10:00,51.1,50.0,30.15,WNW,298,0.0,0.0,96,0.00,,,0.10,Wunderground v.1.15,2013-01-12 03:10:00,
2013-01-11 22:15:00,51.1,50.0,30.15,WNW,298,1.0,1.0,96,0.00,,,0.10,Wunderground v.1.15,2013-01-12 03:15:00,
2013-01-11 22:25:00,51.3,50.2,30.15,WNW,298,1.0,1.0,96,0.00,,,0.10,Wunderground v.1.15,2013-01-12 03:25:00,
2013-01-11 22:30:00,50.9,49.8,30.15,WNW,298,0.0,0.0,96,0.00,,,0.10,Wunderground v.1.15,2013-01-12 03:30:00,
2013-01-11 22:40:00,50.9,49.8,30.15,WNW,298,1.0,1.0,96,0.00,,,0.10,Wunderground v.1.15,2013-01-12 03:40:00,
2013-01-11 22:50:00,50.2,49.1,30.14,WNW,298,0.0,0.0,96,0.00,,,0.10,Wunderground v.1.15,2013-01-12 03:50:00,
2013-01-11 22:55:00,50.5,49.4,30.15,WNW,298,0.0,0.0,96,0.00,,,0.10,Wunderground v.1.15,2013-01-12 03:55:00,
2013-01-11 23:00:00,50.2,49.1,30.15,WNW,298,0.0,0.0,96,0.00,,,0.10,Wunderground v.1.15,2013-01-12 04:00:00,
2013-01-11 23:05:00,49.9,48.5,30.15,WNW,298,0.0,0.0,95,0.00,,,0.10,Wunderground v.1.15,2013-01-12 04:05:00,
2013-01-11 23:10:00,49.9,48.5,30.15,WNW,298,0.0,0.0,95,0.00,,,0.10,Wunderground v.1.15,2013-01-12 04:10:00,
2013-01-11 23:15:00,49.9,48.5,30.15,WNW,298,0.0,0.0,95,0.00,,,0.10,Wunderground v.1.15,2013-01-12 04:15:00,
2013-01-11 23:25:00,49.6,48.2,30.15,WNW,298,0.0,0.0,95,0.00,,,0.10,Wunderground v.1.15,2013-01-12 04:25:00,
2013-01-11 23:30:00,49.4,48.0,30.15,WNW,298,0.0,0.0,95,0.00,,,0.10,Wunderground v.1.15,2013-01-12 04:30:00,
2013-01-11 23:40:00,49.4,48.3,30.15,WNW,298,0.0,0.0,96,0.00,,,0.10,Wunderground v.1.15,2013-01-12 04:40:00,
2013-01-11 23:45:00,49.2,48.1,30.15,WNW,298,0.0,0.0,96,0.00,,,0.10,Wunderground v.1.15,2013-01-12 04:45:00,
2013-01-11 23:50:00,49.3,48.2,30.15,WNW,298,0.0,0.0,96,0.00,,,0.10,Wunderground v.1.15,2013-01-12 04:50:00,
2013-01-11 23:55:00,49.2,48.1,30.15,WNW,298,0.0,0.0,96,0.00,,,0.10,Wunderground v.1.15,2013-01-12 04:55:00,